Tracking 21612 objects as of 20-Oct-2020
HD Live streaming from Space Station
objects crossing your sky now

ARIANE 5 R/B

Track ARIANE 5 R/B now!


NORAD ID: 26612
Int'l Code: 2000-072E
Perigee: 641.0 km
Apogee: 39,530.3 km
Inclination: 7.0 °
Period: 713.8 minutes
Semi major axis: 26456 km
RCS: 20.7538 m2 (large)
Launch date: November 16, 2000
Source: France (FR)
Launch site: FRENCH GUIANA (FRGUI)

Note: This is a ROCKET BODY
aabbcc
Your satellite tracking list
Your tracking list is empty




NASA's NSSDC Master Catalog

Two Line Element Set (TLE):
1 26612U 00072E   20293.56152513 -.00000471 +00000-0 +12572-2 0  9992
2 26612 007.0395 013.1081 7349630 197.7037 107.0176 02.01744289146902
Source of the keplerian elements: AFSPC